Volver al catálogo

OBZOR-R 01

ActivoCienciaSSO
NORAD 67234·PAYLOAD·🇷🇺 Russia

Lanzado Dec 25, 2025 desde Plesetsk Cosmodrome

Loading…

Próximos Pases (próximas 24 horas)

TLE

ActualizadoSource: Space-Track

Época: Sep 14, 2026, 10:44 UTC

1 67234U 25310A   26257.44786991  .00000081  00000-0  19173-4 0  9997
2 67234  97.9685 263.4640 0001289  79.2505 280.8850 14.75910440 38794

Sigue OBZOR-R 01 en tiempo real con AllMySat

Download on the App Store